Wind_Speed
1 0 0 1 2 2 2 1 2 2 2 3 4 4 5 4 5 5 5 5 6 6 6 6 6 6 6 7 8 8 8 8 7 7 7 7 7 8 8 8 9 8 9
1 1 1 1 2 2 2 2 3 3 3 4 4 5 5 5 6 6 6 6 6 6 5 5 6 7 7 8 8 9 9 9 8 7 8 8 9 9 9 9 9 9 9
1 1 0 0 1 2 2 2 3 4 5 5 6 5 5 6 6 7 7 7 7 7 6 7 7 7 8 8 9 9 9 8 9 9 9 9 9 9 10 10 10 10 10
1 1 0 0 1 2 3 3 4 5 6 6 7 7 6 7 7 7 7 8 8 8 8 8 8 8 9 9 10 10 9 9 10 10 10 10 11 11 11 11 10 10 10
2 2 1 1 2 3 4 4 5 6 6 6 7 7 7 8 8 8 8 8 9 9 9 9 9 9 10 10 11 10 10 10 10 11 11 11 11 11 11 11 11 11 11
3 3 3 2 2 3 4 4 5 6 6 6 6 7 8 8 9 9 8 9 10 10 10 11 10 11 11 11 11 11 11 11 12 12 12 12 12 11 11 11 12 12 12
4 4 4 3 3 3 4 5 6 6 6 6 7 8 8 9 9 9 10 11 11 11 12 13 13 13 12 13 12 12 12 12 12 13 13 13 12 12 12 12 12 12 13
6 5 6 4 4 4 5 5 6 6 5 6 7 8 8 9 9 10 11 11 11 12 13 13 13 14 13 13 13 13 14 14 14 13 13 13 13 13 12 13 12 13 13
6 6 6 5 5 5 6 6 6 5 6 6 6 7 7 8 9 10 11 12 13 13 13 13 13 13 14 14 14 14 14 15 14 14 13 13 14 14 13 13 12 13 14
7 8 8 7 6 6 6 6 6 7 7 8 8 8 8 9 10 10 10 11 13 13 14 14 14 14 14 15 14 14 15 15 15 15 14 14 14 14 14 13 13 14 14
8 9 9 8 7 6 6 7 7 7 8 8 9 9 10 11 12 12 12 12 13 13 14 14 15 15 15 15 15 15 15 16 15 16 16 15 15 15 15 15 15 15 15
10 10 10 9 9 8 8 8 7 8 8 9 10 10 11 12 13 14 14 14 14 14 14 15 15 15 15 15 16 16 16 16 17 17 17 17 16 16 17 16 16 15 16
10 11 11 10 10 9 8 8 8 9 9 10 11 12 13 14 15 15 15 15 15 15 16 16 16 16 16 16 16 16 16 17 17 17 17 17 17 17 17 17 17 17 17
11 11 11 10 10 10 10 10 10 11 12 13 13 13 14 14 15 15 15 15 15 16 16 17 17 17 17 17 17 17 17 17 18 18 17 18 18 18 18 18 18 18 18
12 12 12 12 11 11 11 11 12 13 13 14 14 15 15 15 15 16 17 16 17 17 18 18 18 18 18 18 18 18 18 18 19 19 19 19 20 20 20 20 20 20 20
13 13 13 13 13 13 13 13 14 14 15 15 16 16 16 16 17 18 18 18 19 19 20 20 20 20 20 20 20 20 21 20 20 20 20 20 21 21 21 21 22 22 22
14 14 15 15 15 15 15 15 16 16 17 17 17 17 18 18 18 19 20 20 20 21 21 21 22 22 22 22 22 22 22 23 23 22 22 22 22 23 23 23 23 23 23
15 16 16 17 17 17 17 17 17 17 18 18 18 19 19 20 20 21 21 22 22 22 23 23 23 24 24 24 24 24 24 24 24 24 24 25 25 25 25 24 24 24 24
17 17 18 18 19 19 19 18 19 19 19 20 21 21 21 22 22 22 23 24 24 24 24 24 25 26 26 26 26 26 25 26 26 27 27 27 26 26 26 26 26 26 26
19 20 20 21 21 21 21 21 21 21 22 22 23 23 24 24 24 24 25 26 26 26 26 26 27 27 27 28 28 28 28 27 27 28 28 27 27 27 27 27 27 27 27
22 22 23 23 23 23 23 22 23 24 24 25 25 25 25 26 26 27 28 28 28 28 28 28 28 28 28 29 29 29 30 29 29 29 29 29 29 29 29 29 28 28 28
24 24 24 24 24 24 24 25 25 26 27 26 26 27 27 27 28 28 29 29 30 31 30 29 29 29 29 29 30 30 30 29 29 30 30 29 29 29 29 29 29 30 30
26 26 26 26 26 27 27 27 28 29 29 29 29 29 29 29 29 29 30 30 29 29 30 30 30 30 30 31 31 31 31 30 30 30 30 30 30 30 29 29 30 30 31
27 28 28 28 29 29 30 30 30 30 30 30 30 30 30 30 30 30 31 30 30 30 30 31 31 31 32 31 32 32 32 31 31 31 31 31 31 31 30 31 31 32 32
30 30 31 31 31 31 32 32 32 32 32 32 32 32 32 32 32 32 32 33 32 32 32 33 33 32 32 33 32 32 32 32 32 32 31 31 31 33 33 33 33 33 34
33 33 33 34 34 34 34 34 35 35 34 34 34 34 34 34 34 34 34 34 34 34 34 34 34 34 35 34 33 34 33 33 33 33 33 32 32 33 32 32 33 33 34
Wind_Direction
52 7 272 224 209 204 208 245 251 232 207 213 234 247 254 261 264 271 274 274 279 279 280 272 266 275 281 286 287 286 290 290 292 287 286 288 294 290 287 286 283 285 284
40 0 340 208 213 213 219 246 252 242 234 239 249 259 259 257 262 271 270 271 272 276 284 282 278 274 276 284 291 288 292 291 285 284 283 288 288 289 285 286 287 285 286
24 1 333 206 196 211 239 250 252 251 247 247 248 260 265 265 276 282 271 270 269 274 279 282 279 279 279 281 288 288 291 288 285 285 290 292 291 290 289 286 284 284 286
52 47 360 270 238 244 255 256 258 261 258 257 253 256 264 269 275 280 274 271 272 275 280 281 281 282 280 282 284 286 285 286 287 290 292 291 291 290 288 287 285 282 282
43 38 3 289 262 255 258 259 257 265 266 262 257 262 268 272 272 278 278 277 276 277 278 280 284 283 281 282 281 279 281 284 287 289 290 290 291 290 286 285 281 282 282
40 16 340 306 278 265 263 265 265 269 270 268 269 271 275 276 275 277 280 280 278 281 281 281 284 284 284 282 280 280 280 281 283 281 285 287 290 288 284 282 280 279 279
22 1 347 315 294 283 276 270 277 282 275 276 277 274 275 277 278 278 280 283 282 280 281 278 280 284 283 286 283 280 281 280 282 282 284 284 284 284 281 280 281 280 279
13 360 350 334 300 288 286 286 285 285 281 280 281 278 277 276 279 277 280 281 281 282 280 280 284 284 284 285 284 278 277 278 279 282 284 284 280 280 280 279 278 278 278
11 0 348 334 309 293 287 295 292 286 288 288 284 290 292 291 287 283 281 282 284 285 284 280 279 283 282 283 282 281 283 278 277 281 283 284 281 280 281 280 278 278 278
359 351 347 339 322 306 295 297 299 292 291 291 286 290 291 290 290 288 287 285 285 285 285 283 282 280 281 280 282 285 285 284 279 281 284 286 281 278 282 282 280 279 280
354 349 347 342 330 317 307 302 296 296 295 295 291 290 293 291 290 289 286 288 290 291 289 288 284 280 279 279 281 285 286 283 281 282 282 284 280 278 280 283 281 279 279
354 350 346 340 331 321 313 309 304 298 298 298 296 295 296 293 289 286 286 289 293 295 293 292 287 286 286 283 282 284 286 284 282 283 283 283 284 283 282 282 282 281 282
352 350 344 338 334 325 320 315 307 303 301 299 297 297 298 298 293 291 289 291 292 290 291 291 289 289 288 288 286 284 285 285 284 282 283 284 286 287 286 285 286 287 287
346 343 342 336 331 326 321 317 312 306 305 304 300 299 298 296 295 295 293 291 291 289 290 290 288 289 291 289 288 286 284 285 284 282 284 285 284 285 288 285 285 285 284
342 340 338 337 332 332 327 318 311 306 304 305 303 300 297 296 295 295 294 291 290 288 288 288 289 288 289 290 288 284 284 283 283 283 284 285 284 284 284 284 281 281 282
334 335 337 334 332 327 322 317 313 309 305 305 303 301 298 296 296 297 295 291 291 289 289 288 288 287 286 288 289 286 283 283 284 284 284 285 286 284 284 283 281 280 281
325 327 328 326 324 322 319 315 313 310 307 305 303 299 296 294 294 294 294 291 290 290 289 288 287 287 286 286 287 288 285 284 283 282 282 284 284 284 285 285 283 280 280
318 320 321 322 319 317 316 313 309 308 305 304 302 299 297 295 293 292 293 291 290 289 288 288 287 287 286 285 285 284 283 284 284 282 282 282 283 283 284 284 282 281 280
313 314 316 317 316 314 312 310 307 305 304 302 300 299 298 296 295 294 292 290 289 288 287 287 287 287 286 285 284 282 282 283 283 282 281 282 283 284 285 284 281 280 280
308 309 310 310 310 310 310 307 305 304 302 301 298 297 296 295 295 295 293 291 289 288 287 286 286 286 285 286 286 283 282 282 282 283 283 281 282 282 282 282 281 279 280
304 306 306 306 306 306 307 306 304 302 302 301 298 297 296 295 294 295 294 292 290 289 287 286 285 284 285 287 287 285 283 283 284 283 283 282 282 282 282 283 281 279 279
303 305 305 305 305 304 305 304 303 302 301 301 299 297 297 296 296 295 295 293 291 290 287 286 286 286 285 286 286 286 285 285 285 283 282 282 282 281 281 282 280 279 279
300 301 301 301 302 301 301 301 300 300 300 300 299 298 298 298 297 296 295 294 294 293 290 288 288 287 285 285 285 285 285 284 284 283 283 282 280 280 279 278 279 279 279
297 298 298 299 300 300 300 300 300 300 300 299 299 299 297 298 298 297 296 295 294 293 291 290 289 288 286 284 284 284 283 281 282 283 282 281 281 280 280 279 279 279 278
295 295 296 297 297 298 299 299 298 298 298 298 298 298 297 296 296 296 295 294 293 292 291 290 289 288 287 285 282 282 281 280 281 281 281 281 280 280 280 279 278 278 277
294 294 294 295 296 296 297 297 297 296 296 295 295 296 295 295 294 293 293 293 292 292 291 289 287 286 286 285 282 281 280 280 281 280 280 280 280 280 281 280 279 279 280
Height
5893 5893 5892 5892 5892 5892 5892 5892 5892 5892 5892 5892 5893 5893 5893 5892 5892 5891 5891 5891 5891 5890 5890 5889 5889 5889 5888 5888 5887 5887 5886 5886 5885 5885 5884 5884 5883 5882 5882 5881 5881 5880 5880
5893 5893 5892 5892 5892 5892 5892 5892 5892 5892 5892 5892 5892 5891 5891 5891 5891 5890 5890 5890 5889 5889 5888 5888 5888 5887 5887 5886 5886 5885 5884 5884 5884 5883 5883 5882 5881 5880 5880 5879 5878 5878 5878
5893 5892 5892 5892 5891 5891 5891 5891 5891 5891 5890 5890 5890 5890 5890 5890 5889 5889 5889 5888 5888 5888 5887 5887 5886 5886 5885 5885 5884 5883 5883 5882 5882 5881 5881 5880 5879 5878 5878 5877 5876 5876 5876
5892 5892 5892 5891 5891 5891 5891 5890 5890 5889 5889 5889 5889 5889 5889 5889 5888 5888 5887 5887 5886 5886 5886 5885 5885 5884 5883 5883 5882 5881 5881 5880 5880 5879 5878 5878 5877 5876 5875 5875 5874 5874 5873
5892 5892 5891 5891 5890 5890 5890 5889 5889 5888 5887 5887 5887 5887 5887 5887 5887 5886 5885 5885 5884 5884 5884 5883 5883 5882 5881 5881 5880 5879 5878 5878 5877 5877 5876 5875 5874 5873 5872 5872 5871 5871 5870
5892 5891 5891 5890 5889 5889 5888 5888 5888 5887 5886 5885 5885 5885 5885 5885 5884 5884 5884 5883 5883 5882 5882 5881 5880 5880 5879 5878 5877 5877 5876 5875 5875 5874 5873 5872 5871 5870 5869 5869 5868 5868 5868
5892 5891 5890 5889 5888 5888 5887 5886 5886 5885 5884 5884 5884 5883 5883 5883 5882 5882 5882 5881 5880 5880 5879 5878 5878 5876 5876 5875 5874 5873 5873 5872 5872 5871 5870 5869 5868 5867 5866 5866 5865 5865 5864
5892 5890 5889 5888 5887 5886 5886 5885 5884 5884 5883 5882 5882 5882 5881 5881 5880 5880 5879 5879 5878 5877 5876 5875 5874 5873 5873 5872 5871 5870 5870 5869 5868 5867 5866 5865 5864 5864 5863 5862 5862 5861 5861
5891 5890 5888 5887 5886 5885 5884 5883 5883 5882 5881 5881 5880 5880 5879 5879 5878 5877 5876 5875 5874 5874 5873 5872 5871 5870 5869 5868 5868 5867 5866 5865 5864 5863 5862 5861 5861 5860 5859 5858 5858 5858 5857
5891 5889 5887 5886 5884 5883 5883 5882 5881 5880 5880 5879 5878 5877 5877 5876 5875 5875 5874 5872 5871 5870 5869 5868 5867 5866 5866 5865 5864 5863 5862 5861 5860 5860 5859 5858 5857 5856 5855 5855 5854 5854 5853
5890 5888 5886 5884 5883 5882 5881 5880 5879 5878 5878 5877 5876 5875 5874 5873 5872 5871 5870 5869 5868 5867 5866 5864 5863 5862 5861 5860 5860 5859 5858 5857 5856 5856 5855 5854 5853 5852 5851 5851 5850 5850 5849
5889 5887 5885 5883 5881 5880 5879 5878 5877 5876 5875 5874 5873 5872 5871 5870 5869 5868 5867 5865 5864 5863 5862 5860 5859 5858 5857 5856 5855 5855 5854 5853 5852 5851 5850 5849 5849 5848 5847 5847 5846 5845 5845
5888 5886 5884 5882 5880 5878 5877 5876 5875 5874 5873 5872 5871 5869 5868 5867 5865 5864 5863 5861 5860 5859 5858 5857 5855 5854 5853 5852 5851 5850 5849 5848 5847 5846 5845 5845 5844 5843 5843 5842 5841 5841 5840
5887 5885 5882 5880 5878 5877 5875 5874 5873 5872 5870 5869 5868 5866 5865 5863 5862 5861 5860 5858 5857 5856 5854 5853 5851 5850 5849 5847 5846 5846 5845 5843 5842 5841 5840 5839 5839 5838 5838 5837 5836 5836 5835
5886 5883 5881 5879 5877 5875 5873 5872 5870 5869 5867 5866 5864 5863 5862 5860 5858 5857 5855 5854 5853 5852 5850 5849 5847 5846 5844 5843 5842 5841 5840 5839 5837 5836 5835 5834 5833 5833 5832 5832 5831 5831 5830
5884 5882 5880 5877 5875 5873 5871 5869 5868 5866 5864 5863 5861 5859 5858 5856 5855 5853 5851 5850 5848 5847 5845 5844 5843 5841 5840 5838 5837 5836 5835 5833 5832 5831 5830 5829 5828 5827 5827 5826 5825 5825 5824
5883 5880 5878 5875 5873 5871 5868 5866 5864 5862 5861 5859 5857 5855 5853 5852 5850 5848 5846 5845 5843 5842 5840 5839 5837 5836 5834 5833 5831 5830 5829 5828 5826 5825 5824 5823 5822 5821 5821 5820 5819 5818 5818
5881 5878 5875 5873 5870 5868 5865 5863 5861 5859 5857 5855 5853 5851 5849 5847 5845 5843 5841 5840 5838 5836 5834 5833 5831 5830 5828 5827 5825 5824 5822 5821 5820 5819 5818 5817 5816 5815 5814 5813 5812 5812 5811
5878 5875 5872 5870 5867 5864 5862 5859 5857 5854 5852 5850 5848 5846 5844 5842 5839 5837 5836 5834 5832 5830 5828 5827 5825 5823 5821 5820 5818 5816 5815 5814 5813 5812 5811 5810 5809 5808 5807 5806 5805 5805 5804
5874 5871 5869 5866 5863 5860 5858 5855 5853 5850 5848 5845 5843 5840 5838 5836 5834 5831 5829 5827 5825 5823 5822 5820 5818 5816 5814 5812 5811 5809 5807 5806 5805 5804 5803 5802 5801 5800 5799 5798 5797 5797 5796
5870 5867 5864 5861 5859 5856 5853 5851 5848 5845 5843 5840 5837 5835 5832 5829 5827 5825 5823 5821 5819 5817 5814 5813 5811 5809 5807 5805 5803 5801 5799 5798 5797 5796 5795 5794 5793 5792 5791 5790 5789 5789 5788
5865 5862 5859 5856 5853 5851 5848 5845 5843 5840 5837 5834 5831 5829 5826 5823 5821 5818 5816 5813 5811 5809 5807 5805 5803 5801 5799 5797 5795 5793 5792 5790 5789 5788 5786 5785 5784 5783 5782 5781 5781 5780 5780
5859 5856 5853 5850 5847 5845 5842 5839 5836 5833 5830 5827 5825 5822 5819 5816 5813 5811 5808 5806 5803 5801 5799 5797 5795 5793 5790 5788 5787 5785 5783 5782 5780 5779 5777 5776 5775 5774 5773 5772 5772 5771 5770
5852 5849 5846 5843 5841 5838 5835 5832 5829 5826 5823 5820 5817 5814 5812 5809 5806 5803 5800 5797 5795 5792 5790 5788 5786 5784 5782 5780 5778 5776 5774 5773 5771 5770 5768 5767 5766 5765 5764 5763 5763 5762 5761
5845 5842 5839 5836 5833 5831 5828 5824 5821 5818 5815 5812 5809 5806 5803 5801 5798 5795 5792 5789 5787 5784 5781 5779 5776 5774 5772 5770 5768 5766 5765 5763 5762 5761 5759 5758 5757 5755 5755 5754 5753 5752 5751
5836 5833 5830 5828 5825 5822 5819 5816 5812 5809 5806 5804 5801 5798 5795 5792 5789 5786 5783 5780 5777 5775 5772 5769 5767 5764 5762 5760 5758 5756 5755 5753 5752 5751 5750 5748 5747 5745 5745 5744 5743 5742 5740